Time,TemperatureF,DewpointF,PressureIn,WindDirection,WindDirectionDegrees,WindSpeedMPH,WindSpeedGustMPH,Humidity,HourlyPrecipIn,Conditions,Clouds,dailyrainin,SoftwareType,DateUTC
2013-02-22 00:00:00,41.0,40.2,29.92,NNW,346,2.0,4.0,97,0.00,,,0.46,WeatherCatV1.02B3,2013-02-22 06:00:00,
2013-02-22 00:05:00,40.7,39.9,29.92,NNW,346,0.0,4.0,97,0.00,,,0.00,WeatherCatV1.02B3,2013-02-22 06:05:00,
2013-02-22 00:10:00,40.7,39.9,29.92,NE,38,0.0,2.0,97,0.00,,,0.00,WeatherCatV1.02B3,2013-02-22 06:10:00,
2013-02-22 00:15:00,40.6,39.8,29.92,NE,38,0.0,0.0,97,0.00,,,0.00,WeatherCatV1.02B3,2013-02-22 06:15:00,
2013-02-22 00:20:00,40.4,39.6,29.92,NE,34,0.0,0.0,97,0.00,,,0.00,WeatherCatV1.02B3,2013-02-22 06:20:00,
2013-02-22 00:25:00,40.2,39.4,29.92,NE,34,0.0,0.0,97,0.00,,,0.00,WeatherCatV1.02B3,2013-02-22 06:25:00,
2013-02-22 00:30:00,40.1,39.3,29.93,NE,34,0.0,0.0,97,0.00,,,0.00,WeatherCatV1.02B3,2013-02-22 06:30:00,
2013-02-22 00:35:00,40.0,39.2,29.93,NE,34,0.0,0.0,97,0.00,,,0.00,WeatherCatV1.02B3,2013-02-22 06:35:00,
2013-02-22 00:40:00,39.8,39.0,29.94,NNW,346,1.0,4.0,97,0.00,,,0.00,WeatherCatV1.02B3,2013-02-22 06:40:00,
2013-02-22 00:45:00,39.6,38.8,29.93,NNE,15,3.0,4.0,97,0.00,,,0.00,WeatherCatV1.02B3,2013-02-22 06:45:00,
2013-02-22 00:50:00,39.3,38.5,29.94,North,11,3.0,4.0,97,0.00,,,0.00,WeatherCatV1.02B3,2013-02-22 06:50:00,
2013-02-22 00:55:00,39.1,38.3,29.94,North,11,0.0,0.0,97,0.00,,,0.00,WeatherCatV1.02B3,2013-02-22 06:55:00,
2013-02-22 01:00:00,39.0,38.2,29.94,North,11,0.0,3.0,97,0.00,,,0.00,WeatherCatV1.02B3,2013-02-22 07:00:00,
2013-02-22 01:05:00,39.0,38.2,29.94,North,11,0.0,0.0,97,0.00,,,0.00,WeatherCatV1.02B3,2013-02-22 07:05:00,
2013-02-22 01:10:00,38.9,38.1,29.94,North,11,0.0,0.0,97,0.00,,,0.00,WeatherCatV1.02B3,2013-02-22 07:10:00,
2013-02-22 01:15:00,38.8,38.0,29.94,North,11,0.0,0.0,97,0.00,,,0.00,WeatherCatV1.02B3,2013-02-22 07:15:00,
2013-02-22 01:20:00,38.6,37.8,29.94,North,11,0.0,0.0,97,0.00,,,0.00,WeatherCatV1.02B3,2013-02-22 07:20:00,
2013-02-22 01:25:00,38.5,37.7,29.94,North,11,0.0,0.0,97,0.00,,,0.00,WeatherCatV1.02B3,2013-02-22 07:25:00,
2013-02-22 01:30:00,38.4,37.6,29.95,North,11,0.0,0.0,97,0.00,,,0.00,WeatherCatV1.02B3,2013-02-22 07:30:00,
2013-02-22 01:35:00,38.4,37.9,29.95,North,11,0.0,0.0,98,0.00,,,0.00,WeatherCatV1.02B3,2013-02-22 07:35:00,
2013-02-22 01:40:00,38.4,37.9,29.95,North,11,0.0,0.0,98,0.00,,,0.00,WeatherCatV1.02B3,2013-02-22 07:40:00,
2013-02-22 01:45:00,38.4,37.9,29.95,North,11,0.0,0.0,98,0.00,,,0.00,WeatherCatV1.02B3,2013-02-22 07:45:00,
2013-02-22 01:50:00,38.4,37.9,29.96,North,11,0.0,0.0,98,0.00,,,0.00,WeatherCatV1.02B3,2013-02-22 07:50:00,
2013-02-22 01:55:00,38.3,37.8,29.95,North,11,0.0,0.0,98,0.00,,,0.00,WeatherCatV1.02B3,2013-02-22 07:55:00,
2013-02-22 02:00:00,38.2,37.7,29.96,North,11,0.0,0.0,98,0.00,,,0.00,WeatherCatV1.02B3,2013-02-22 08:00:00,
2013-02-22 02:05:00,38.1,37.6,29.96,North,11,0.0,0.0,98,0.00,,,0.00,WeatherCatV1.02B3,2013-02-22 08:05:00,
2013-02-22 02:10:00,38.0,37.2,29.96,North,11,0.0,0.0,97,0.00,,,0.00,WeatherCatV1.02B3,2013-02-22 08:10:00,
2013-02-22 02:15:00,37.9,37.1,29.96,North,11,0.0,0.0,97,0.00,,,0.00,WeatherCatV1.02B3,2013-02-22 08:15:00,
2013-02-22 02:20:00,37.7,36.9,29.96,North,11,0.0,0.0,97,0.00,,,0.00,WeatherCatV1.02B3,2013-02-22 08:20:00,
2013-02-22 02:25:00,37.5,36.7,29.96,North,11,0.0,0.0,97,0.00,,,0.00,WeatherCatV1.02B3,2013-02-22 08:25:00,
2013-02-22 02:30:00,37.4,36.6,29.96,North,11,0.0,0.0,97,0.00,,,0.00,WeatherCatV1.02B3,2013-02-22 08:30:00,
2013-02-22 02:35:00,37.3,36.5,29.96,North,11,0.0,0.0,97,0.00,,,0.00,WeatherCatV1.02B3,2013-02-22 08:35:00,
2013-02-22 02:40:00,37.2,36.7,29.96,North,11,0.0,0.0,98,0.00,,,0.00,WeatherCatV1.02B3,2013-02-22 08:40:00,
2013-02-22 02:45:00,37.3,36.8,29.96,North,11,0.0,0.0,98,0.00,,,0.00,WeatherCatV1.02B3,2013-02-22 08:45:00,
2013-02-22 02:50:00,37.2,36.7,29.96,North,11,0.0,0.0,98,0.00,,,0.00,WeatherCatV1.02B3,2013-02-22 08:50:00,
2013-02-22 02:55:00,37.1,36.6,29.96,North,11,0.0,0.0,98,0.00,,,0.00,WeatherCatV1.02B3,2013-02-22 08:55:00,
2013-02-22 03:00:00,37.1,36.6,29.96,North,11,0.0,0.0,98,0.00,,,0.00,WeatherCatV1.02B3,2013-02-22 09:00:00,
2013-02-22 03:05:00,37.1,36.6,29.96,North,11,0.0,0.0,98,0.00,,,0.00,WeatherCatV1.02B3,2013-02-22 09:05:00,
2013-02-22 03:10:00,37.0,36.5,29.97,North,11,0.0,0.0,98,0.00,,,0.00,WeatherCatV1.02B3,2013-02-22 09:10:00,
2013-02-22 03:15:00,36.9,36.4,29.97,North,11,0.0,0.0,98,0.00,,,0.00,WeatherCatV1.02B3,2013-02-22 09:15:00,
2013-02-22 03:20:00,36.9,36.4,29.97,North,11,0.0,0.0,98,0.00,,,0.00,WeatherCatV1.02B3,2013-02-22 09:20:00,
2013-02-22 03:25:00,36.9,36.4,29.97,North,11,0.0,0.0,98,0.00,,,0.00,WeatherCatV1.02B3,2013-02-22 09:25:00,
2013-02-22 03:30:00,36.8,36.3,29.98,North,11,0.0,0.0,98,0.00,,,0.00,WeatherCatV1.02B3,2013-02-22 09:30:00,
2013-02-22 03:35:00,36.8,36.3,29.97,ENE,65,0.0,0.0,98,0.00,,,0.00,WeatherCatV1.02B3,2013-02-22 09:35:00,
2013-02-22 03:40:00,36.8,36.3,29.98,ENE,65,0.0,0.0,98,0.00,,,0.00,WeatherCatV1.02B3,2013-02-22 09:40:00,
2013-02-22 03:45:00,36.8,36.3,29.98,ENE,65,0.0,0.0,98,0.00,,,0.00,WeatherCatV1.02B3,2013-02-22 09:45:00,
2013-02-22 03:50:00,36.9,36.4,29.98,ENE,65,0.0,0.0,98,0.00,,,0.00,WeatherCatV1.02B3,2013-02-22 09:50:00,
2013-02-22 03:55:00,37.1,36.6,29.97,ENE,65,0.0,0.0,98,0.00,,,0.00,WeatherCatV1.02B3,2013-02-22 09:55:00,
2013-02-22 04:00:00,37.1,36.6,29.98,ENE,59,0.0,0.0,98,0.00,,,0.00,WeatherCatV1.02B3,2013-02-22 10:00:00,
2013-02-22 04:05:00,37.0,36.5,29.98,ENE,58,0.0,0.0,98,0.00,,,0.00,WeatherCatV1.02B3,2013-02-22 10:05:00,
2013-02-22 04:10:00,36.9,36.4,29.99,ENE,58,0.0,0.0,98,0.00,,,0.00,WeatherCatV1.02B3,2013-02-22 10:10:00,
2013-02-22 04:15:00,36.9,36.4,29.98,ENE,58,0.0,0.0,98,0.00,,,0.00,WeatherCatV1.02B3,2013-02-22 10:15:00,
2013-02-22 04:20:00,37.0,36.5,29.99,WSW,257,0.0,0.0,98,0.00,,,0.00,WeatherCatV1.02B3,2013-02-22 10:20:00,
2013-02-22 04:25:00,37.1,36.6,29.99,WNW,284,0.0,4.0,98,0.00,,,0.00,WeatherCatV1.02B3,2013-02-22 10:25:00,
2013-02-22 04:30:00,37.1,36.6,29.99,WNW,290,0.0,5.0,98,0.00,,,0.00,WeatherCatV1.02B3,2013-02-22 10:30:00,
2013-02-22 04:35:00,37.1,36.6,29.99,WNW,290,0.0,0.0,98,0.00,,,0.00,WeatherCatV1.02B3,2013-02-22 10:35:00,
2013-02-22 04:40:00,37.2,36.7,29.99,WNW,290,0.0,0.0,98,0.00,,,0.00,WeatherCatV1.02B3,2013-02-22 10:40:00,
2013-02-22 04:45:00,37.3,36.8,29.99,WNW,290,0.0,0.0,98,0.00,,,0.00,WeatherCatV1.02B3,2013-02-22 10:45:00,
2013-02-22 04:50:00,37.4,36.9,30.00,WNW,290,0.0,0.0,98,0.00,,,0.00,WeatherCatV1.02B3,2013-02-22 10:50:00,
2013-02-22 04:55:00,37.3,36.8,30.00,WNW,290,0.0,0.0,98,0.00,,,0.00,WeatherCatV1.02B3,2013-02-22 10:55:00,
2013-02-22 05:00:00,37.4,36.9,30.00,WNW,290,0.0,0.0,98,0.00,,,0.00,WeatherCatV1.02B3,2013-02-22 11:00:00,
2013-02-22 05:05:00,37.5,37.0,30.00,WNW,290,0.0,0.0,98,0.00,,,0.00,WeatherCatV1.02B3,2013-02-22 11:05:00,
2013-02-22 05:10:00,37.7,37.2,30.00,NW,311,4.0,5.0,98,0.00,,,0.00,WeatherCatV1.02B3,2013-02-22 11:10:00,
2013-02-22 05:15:00,37.7,37.2,30.00,NW,314,5.0,6.0,98,0.00,,,0.00,WeatherCatV1.02B3,2013-02-22 11:15:00,
2013-02-22 05:20:00,37.4,36.9,30.00,NNW,340,5.0,6.0,98,0.00,,,0.00,WeatherCatV1.02B3,2013-02-22 11:20:00,
2013-02-22 05:25:00,37.2,36.7,30.00,NNW,338,5.0,7.0,98,0.00,,,0.00,WeatherCatV1.02B3,2013-02-22 11:25:00,
2013-02-22 05:30:00,37.1,36.6,30.00,NNW,338,6.0,7.0,98,0.00,,,0.00,WeatherCatV1.02B3,2013-02-22 11:30:00,
2013-02-22 05:35:00,37.1,36.6,30.00,WNW,292,4.0,6.0,98,0.00,,,0.00,WeatherCatV1.02B3,2013-02-22 11:35:00,
2013-02-22 05:40:00,37.2,36.7,30.00,NNW,338,3.0,5.0,98,0.00,,,0.00,WeatherCatV1.02B3,2013-02-22 11:40:00,
2013-02-22 05:45:00,37.3,36.8,30.00,NNW,338,4.0,4.0,98,0.00,,,0.00,WeatherCatV1.02B3,2013-02-22 11:45:00,
2013-02-22 05:50:00,37.2,36.7,30.00,NNW,338,4.0,5.0,98,0.00,,,0.00,WeatherCatV1.02B3,2013-02-22 11:50:00,
2013-02-22 05:55:00,37.3,36.8,30.01,NNW,348,3.0,5.0,98,0.00,,,0.00,WeatherCatV1.02B3,2013-02-22 11:55:00,
2013-02-22 06:00:00,37.3,36.8,30.00,North,5,4.0,5.0,98,0.00,,,0.00,WeatherCatV1.02B3,2013-02-22 12:00:00,
2013-02-22 06:05:00,37.0,36.5,30.01,North,355,0.0,4.0,98,0.00,,,0.00,WeatherCatV1.02B3,2013-02-22 12:05:00,
2013-02-22 06:10:00,36.9,36.4,30.03,North,355,0.0,0.0,98,0.00,,,0.00,WeatherCatV1.02B3,2013-02-22 12:10:00,
2013-02-22 06:15:00,36.8,36.3,30.03,North,355,0.0,0.0,98,0.00,,,0.00,WeatherCatV1.02B3,2013-02-22 12:15:00,
2013-02-22 06:20:00,36.9,36.4,30.03,North,355,4.0,4.0,98,0.00,,,0.00,WeatherCatV1.02B3,2013-02-22 12:20:00,
2013-02-22 06:25:00,36.8,36.3,30.04,North,355,0.0,3.0,98,0.00,,,0.00,WeatherCatV1.02B3,2013-02-22 12:25:00,
2013-02-22 06:30:00,36.6,36.1,30.04,NNW,338,5.0,6.0,98,0.00,,,0.00,WeatherCatV1.02B3,2013-02-22 12:30:00,
2013-02-22 06:35:00,36.5,36.0,30.04,NNW,327,0.0,3.0,98,0.00,,,0.00,WeatherCatV1.02B3,2013-02-22 12:35:00,
2013-02-22 06:40:00,36.4,35.9,30.04,WNW,289,3.0,5.0,98,0.00,,,0.00,WeatherCatV1.02B3,2013-02-22 12:40:00,
2013-02-22 06:45:00,36.5,36.0,30.05,NW,310,4.0,6.0,98,0.00,,,0.00,WeatherCatV1.02B3,2013-02-22 12:45:00,
2013-02-22 06:50:00,36.3,35.8,30.06,NW,308,4.0,6.0,98,0.00,,,0.00,WeatherCatV1.02B3,2013-02-22 12:50:00,
2013-02-22 06:55:00,36.0,35.5,30.06,West,281,7.0,7.0,98,0.00,,,0.00,WeatherCatV1.02B3,2013-02-22 12:55:00,
2013-02-22 07:00:00,35.8,35.3,30.07,WNW,282,0.0,0.0,98,0.00,,,0.00,WeatherCatV1.02B3,2013-02-22 13:00:00,
2013-02-22 07:05:00,35.8,35.3,30.07,WNW,282,0.0,0.0,98,0.00,,,0.00,WeatherCatV1.02B3,2013-02-22 13:05:00,
2013-02-22 07:10:00,35.8,35.3,30.08,WNW,296,5.0,7.0,98,0.00,,,0.00,WeatherCatV1.02B3,2013-02-22 13:10:00,
2013-02-22 07:15:00,35.7,35.2,30.08,WNW,295,0.0,2.0,98,0.00,,,0.00,WeatherCatV1.02B3,2013-02-22 13:15:00,
2013-02-22 07:20:00,35.9,35.4,30.07,NW,310,4.0,6.0,98,0.00,,,0.00,WeatherCatV1.02B3,2013-02-22 13:20:00,
2013-02-22 07:25:00,36.2,35.7,30.07,NW,309,4.0,7.0,98,0.00,,,0.00,WeatherCatV1.02B3,2013-02-22 13:25:00,
2013-02-22 07:30:00,36.4,36.1,30.07,NW,322,6.0,7.0,99,0.00,,,0.00,WeatherCatV1.02B3,2013-02-22 13:30:00,
2013-02-22 07:35:00,36.5,36.2,30.08,WNW,300,3.0,8.0,99,0.00,,,0.00,WeatherCatV1.02B3,2013-02-22 13:35:00,
2013-02-22 07:40:00,36.6,36.3,30.08,NW,311,4.0,6.0,99,0.00,,,0.00,WeatherCatV1.02B3,2013-02-22 13:40:00,
2013-02-22 07:45:00,36.5,36.2,30.08,NW,315,6.0,7.0,99,0.00,,,0.00,WeatherCatV1.02B3,2013-02-22 13:45:00,
2013-02-22 07:50:00,36.3,35.8,30.08,NW,308,4.0,5.0,98,0.00,,,0.00,WeatherCatV1.02B3,2013-02-22 13:50:00,
2013-02-22 07:55:00,36.4,35.9,30.08,NW,321,5.0,5.0,98,0.00,,,0.01,WeatherCatV1.02B3,2013-02-22 13:55:00,
2013-02-22 08:00:00,36.2,35.7,30.08,North,355,2.0,5.0,98,0.00,,,0.01,WeatherCatV1.02B3,2013-02-22 14:00:00,
2013-02-22 08:05:00,36.4,36.1,30.09,NW,310,4.0,4.0,99,0.00,,,0.01,WeatherCatV1.02B3,2013-02-22 14:05:00,
2013-02-22 08:10:00,36.4,36.1,30.09,NW,323,4.0,6.0,99,0.00,,,0.01,WeatherCatV1.02B3,2013-02-22 14:10:00,
2013-02-22 08:15:00,36.4,36.1,30.09,NNW,338,2.0,3.0,99,0.00,,,0.01,WeatherCatV1.02B3,2013-02-22 14:15:00,
2013-02-22 08:20:00,36.4,36.1,30.10,NW,319,1.0,4.0,99,0.00,,,0.01,WeatherCatV1.02B3,2013-02-22 14:20:00,
2013-02-22 08:25:00,36.5,36.2,30.09,NW,305,0.0,0.0,99,0.00,,,0.01,WeatherCatV1.02B3,2013-02-22 14:25:00,
2013-02-22 08:30:00,36.7,36.2,30.10,WNW,295,0.0,2.0,98,0.00,,,0.01,WeatherCatV1.02B3,2013-02-22 14:30:00,
2013-02-22 08:35:00,36.9,36.4,30.10,NW,321,4.0,5.0,98,0.00,,,0.01,WeatherCatV1.02B3,2013-02-22 14:35:00,
2013-02-22 08:40:00,37.0,36.7,30.10,NNW,327,0.0,0.0,99,0.00,,,0.01,WeatherCatV1.02B3,2013-02-22 14:40:00,
2013-02-22 08:45:00,37.0,36.7,30.10,NW,321,0.0,4.0,99,0.00,,,0.01,WeatherCatV1.02B3,2013-02-22 14:45:00,
2013-02-22 08:50:00,37.0,36.7,30.11,NNW,341,0.0,3.0,99,0.00,,,0.01,WeatherCatV1.02B3,2013-02-22 14:50:00,
2013-02-22 08:55:00,37.1,36.8,30.11,WNW,298,3.0,4.0,99,0.00,,,0.01,WeatherCatV1.02B3,2013-02-22 14:55:00,
2013-02-22 09:00:00,37.3,37.0,30.11,NW,320,4.0,4.0,99,0.00,,,0.01,WeatherCatV1.02B3,2013-02-22 15:00:00,
2013-02-22 09:05:00,37.2,36.9,30.11,NW,313,0.0,1.0,99,0.00,,,0.01,WeatherCatV1.02B3,2013-02-22 15:05:00,
2013-02-22 09:10:00,37.2,36.9,30.12,NW,313,0.0,0.0,99,0.00,,,0.01,WeatherCatV1.02B3,2013-02-22 15:10:00,
2013-02-22 09:15:00,37.3,37.0,30.11,WNW,298,2.0,4.0,99,0.00,,,0.01,WeatherCatV1.02B3,2013-02-22 15:15:00,
2013-02-22 09:20:00,37.4,37.1,30.11,WNW,298,0.0,0.0,99,0.00,,,0.01,WeatherCatV1.02B3,2013-02-22 15:20:00,
2013-02-22 09:25:00,37.4,37.1,30.11,NNW,330,0.0,5.0,99,0.00,,,0.01,WeatherCatV1.02B3,2013-02-22 15:25:00,
2013-02-22 09:30:00,37.4,37.1,30.11,WNW,303,0.0,3.0,99,0.00,,,0.01,WeatherCatV1.02B3,2013-02-22 15:30:00,
2013-02-22 09:35:00,37.5,37.2,30.12,NW,321,3.0,5.0,99,0.00,,,0.01,WeatherCatV1.02B3,2013-02-22 15:35:00,
2013-02-22 09:40:00,37.6,37.3,30.12,NW,317,0.0,0.0,99,0.00,,,0.01,WeatherCatV1.02B3,2013-02-22 15:40:00,
2013-02-22 09:45:00,37.7,37.4,30.11,West,279,0.0,3.0,99,0.00,,,0.01,WeatherCatV1.02B3,2013-02-22 15:45:00,
2013-02-22 09:50:00,37.8,37.5,30.11,West,279,0.0,0.0,99,0.00,,,0.01,WeatherCatV1.02B3,2013-02-22 15:50:00,
2013-02-22 09:55:00,37.9,37.6,30.11,WNW,292,0.0,3.0,99,0.00,,,0.01,WeatherCatV1.02B3,2013-02-22 15:55:00,
2013-02-22 10:00:00,37.9,37.6,30.11,NW,311,0.0,0.0,99,0.00,,,0.01,WeatherCatV1.02B3,2013-02-22 16:00:00,
2013-02-22 10:05:00,38.0,37.7,30.12,West,279,3.0,5.0,99,0.00,,,0.01,WeatherCatV1.02B3,2013-02-22 16:05:00,
2013-02-22 10:10:00,38.0,37.7,30.12,WNW,292,0.0,0.0,99,0.00,,,0.01,WeatherCatV1.02B3,2013-02-22 16:10:00,
2013-02-22 10:15:00,38.2,37.9,30.12,NW,310,4.0,5.0,99,0.00,,,0.01,WeatherCatV1.02B3,2013-02-22 16:15:00,
2013-02-22 10:20:00,38.3,38.0,30.12,WNW,288,3.0,6.0,99,0.00,,,0.01,WeatherCatV1.02B3,2013-02-22 16:20:00,
2013-02-22 10:25:00,38.5,38.2,30.12,WNW,294,4.0,4.0,99,0.00,,,0.01,WeatherCatV1.02B3,2013-02-22 16:25:00,
2013-02-22 10:30:00,38.5,38.2,30.11,North,351,3.0,4.0,99,0.00,,,0.01,WeatherCatV1.02B3,2013-02-22 16:30:00,
2013-02-22 10:35:00,38.6,38.3,30.11,North,350,5.0,5.0,99,0.00,,,0.01,WeatherCatV1.02B3,2013-02-22 16:35:00,
2013-02-22 10:40:00,38.8,38.5,30.11,NNW,331,4.0,7.0,99,0.00,,,0.01,WeatherCatV1.02B3,2013-02-22 16:40:00,
2013-02-22 10:45:00,38.8,38.5,30.10,NNW,335,3.0,5.0,99,0.00,,,0.01,WeatherCatV1.02B3,2013-02-22 16:45:00,
2013-02-22 10:50:00,39.0,38.7,30.10,NNW,327,4.0,6.0,99,0.00,,,0.01,WeatherCatV1.02B3,2013-02-22 16:50:00,
2013-02-22 10:55:00,39.1,38.8,30.10,NNW,327,3.0,5.0,99,0.00,,,0.01,WeatherCatV1.02B3,2013-02-22 16:55:00,
2013-02-22 11:00:00,39.2,38.9,30.10,NNW,332,6.0,6.0,99,0.00,,,0.01,WeatherCatV1.02B3,2013-02-22 17:00:00,
2013-02-22 11:05:00,39.2,38.9,30.10,NW,309,0.0,4.0,99,0.00,,,0.01,WeatherCatV1.02B3,2013-02-22 17:05:00,
2013-02-22 11:10:00,39.3,39.0,30.11,NW,322,4.0,5.0,99,0.00,,,0.01,WeatherCatV1.02B3,2013-02-22 17:10:00,
2013-02-22 11:15:00,39.4,39.1,30.12,WNW,286,2.0,4.0,99,0.00,,,0.01,WeatherCatV1.02B3,2013-02-22 17:15:00,
2013-02-22 11:20:00,39.6,39.3,30.13,WNW,286,0.0,0.0,99,0.00,,,0.01,WeatherCatV1.02B3,2013-02-22 17:20:00,
2013-02-22 11:25:00,39.8,39.5,30.12,WNW,300,0.0,0.0,99,0.00,,,0.01,WeatherCatV1.02B3,2013-02-22 17:25:00,
2013-02-22 11:30:00,39.9,39.6,30.11,North,9,0.0,0.0,99,0.00,,,0.01,WeatherCatV1.02B3,2013-02-22 17:30:00,
2013-02-22 11:35:00,40.0,39.7,30.12,NW,315,2.0,5.0,99,0.00,,,0.01,WeatherCatV1.02B3,2013-02-22 17:35:00,
2013-02-22 11:40:00,39.9,39.6,30.11,NW,319,0.0,0.0,99,0.00,,,0.01,WeatherCatV1.02B3,2013-02-22 17:40:00,
2013-02-22 11:45:00,40.4,40.1,30.11,NW,319,0.0,3.0,99,0.00,,,0.01,WeatherCatV1.02B3,2013-02-22 17:45:00,
2013-02-22 11:50:00,40.7,40.4,30.10,NW,308,3.0,6.0,99,0.00,,,0.01,WeatherCatV1.02B3,2013-02-22 17:50:00,
2013-02-22 11:55:00,40.7,40.2,30.10,NNW,327,3.0,5.0,98,0.00,,,0.01,WeatherCatV1.02B3,2013-02-22 17:55:00,
2013-02-22 12:00:00,40.8,40.3,30.10,NW,325,3.0,5.0,98,0.00,,,0.01,WeatherCatV1.02B3,2013-02-22 18:00:00,
2013-02-22 12:05:00,41.0,40.5,30.11,NW,326,4.0,7.0,98,0.00,,,0.01,WeatherCatV1.02B3,2013-02-22 18:05:00,
2013-02-22 12:10:00,41.2,40.7,30.11,WNW,292,0.0,0.0,98,0.00,,,0.01,WeatherCatV1.02B3,2013-02-22 18:10:00,
2013-02-22 12:15:00,41.3,40.8,30.10,NW,319,3.0,3.0,98,0.00,,,0.01,WeatherCatV1.02B3,2013-02-22 18:15:00,
2013-02-22 12:20:00,41.4,40.9,30.09,NNW,329,5.0,5.0,98,0.00,,,0.01,WeatherCatV1.02B3,2013-02-22 18:20:00,
2013-02-22 12:25:00,41.8,41.3,30.08,North,350,5.0,6.0,98,0.00,,,0.01,WeatherCatV1.02B3,2013-02-22 18:25:00,
2013-02-22 12:30:00,42.1,41.6,30.08,NNW,328,5.0,6.0,98,0.00,,,0.01,WeatherCatV1.02B3,2013-02-22 18:30:00,
2013-02-22 12:35:00,42.6,42.1,30.08,North,355,6.0,9.0,98,0.00,,,0.01,WeatherCatV1.02B3,2013-02-22 18:35:00,
2013-02-22 12:40:00,42.8,42.3,30.08,NW,311,6.0,7.0,98,0.00,,,0.01,WeatherCatV1.02B3,2013-02-22 18:40:00,
2013-02-22 12:45:00,43.0,42.2,30.08,NW,309,3.0,5.0,97,0.00,,,0.01,WeatherCatV1.02B3,2013-02-22 18:45:00,
2013-02-22 12:50:00,43.1,42.3,30.07,NNW,347,2.0,3.0,97,0.00,,,0.01,WeatherCatV1.02B3,2013-02-22 18:50:00,
2013-02-22 12:55:00,43.1,42.3,30.08,WNW,302,4.0,7.0,97,0.00,,,0.01,WeatherCatV1.02B3,2013-02-22 18:55:00,
2013-02-22 13:00:00,43.3,42.2,30.07,NW,306,7.0,8.0,96,0.00,,,0.01,WeatherCatV1.02B3,2013-02-22 19:00:00,
2013-02-22 13:05:00,43.5,42.4,30.06,NW,319,3.0,6.0,96,0.00,,,0.01,WeatherCatV1.02B3,2013-02-22 19:05:00,
2013-02-22 13:10:00,43.8,42.7,30.06,NNW,331,4.0,7.0,96,0.00,,,0.01,WeatherCatV1.02B3,2013-02-22 19:10:00,
2013-02-22 13:15:00,44.0,42.7,30.06,NNW,327,6.0,8.0,95,0.00,,,0.01,WeatherCatV1.02B3,2013-02-22 19:15:00,
2013-02-22 13:20:00,44.4,43.1,30.06,NW,315,4.0,8.0,95,0.00,,,0.01,WeatherCatV1.02B3,2013-02-22 19:20:00,
2013-02-22 13:25:00,44.6,43.3,30.05,NNW,336,3.0,4.0,95,0.00,,,0.01,WeatherCatV1.02B3,2013-02-22 19:25:00,
2013-02-22 13:30:00,44.7,43.1,30.04,NW,319,5.0,6.0,94,0.00,,,0.01,WeatherCatV1.02B3,2013-02-22 19:30:00,
2013-02-22 13:35:00,45.1,43.5,30.04,NW,326,4.0,8.0,94,0.00,,,0.01,WeatherCatV1.02B3,2013-02-22 19:35:00,
2013-02-22 13:40:00,45.4,43.8,30.04,NW,320,5.0,7.0,94,0.00,,,0.01,WeatherCatV1.02B3,2013-02-22 19:40:00,
2013-02-22 13:45:00,45.7,43.8,30.04,North,5,4.0,6.0,93,0.00,,,0.01,WeatherCatV1.02B3,2013-02-22 19:45:00,
2013-02-22 13:50:00,46.2,44.3,30.04,NNW,339,6.0,8.0,93,0.00,,,0.01,WeatherCatV1.02B3,2013-02-22 19:50:00,
2013-02-22 13:55:00,46.4,44.2,30.03,NNW,348,3.0,6.0,92,0.00,,,0.01,WeatherCatV1.02B3,2013-02-22 19:55:00,
2013-02-22 14:00:00,46.6,44.1,30.04,NW,319,6.0,6.0,91,0.00,,,0.01,WeatherCatV1.02B3,2013-02-22 20:00:00,
2013-02-22 14:05:00,46.9,44.7,30.03,NNW,340,6.0,9.0,92,0.00,,,0.01,WeatherCatV1.02B3,2013-02-22 20:05:00,
2013-02-22 14:10:00,47.0,44.5,30.03,North,0,6.0,8.0,91,0.00,,,0.01,WeatherCatV1.02B3,2013-02-22 20:10:00,
2013-02-22 14:15:00,47.2,44.4,30.03,North,10,8.0,9.0,90,0.00,,,0.01,WeatherCatV1.02B3,2013-02-22 20:15:00,
2013-02-22 14:20:00,47.3,44.8,30.02,NNW,338,8.0,9.0,91,0.00,,,0.01,WeatherCatV1.02B3,2013-02-22 20:20:00,
2013-02-22 14:25:00,47.1,44.0,30.02,NNE,18,7.0,7.0,89,0.00,,,0.01,WeatherCatV1.02B3,2013-02-22 20:25:00,
2013-02-22 14:30:00,47.1,44.0,30.02,NNW,339,8.0,10.0,89,0.00,,,0.01,WeatherCatV1.02B3,2013-02-22 20:30:00,
2013-02-22 14:35:00,47.0,43.6,30.02,NNE,12,6.0,6.0,88,0.00,,,0.01,WeatherCatV1.02B3,2013-02-22 20:35:00,
2013-02-22 14:40:00,47.0,43.6,30.02,North,9,7.0,7.0,88,0.00,,,0.01,WeatherCatV1.02B3,2013-02-22 20:40:00,
2013-02-22 14:45:00,47.3,44.2,30.02,North,351,9.0,9.0,89,0.00,,,0.01,WeatherCatV1.02B3,2013-02-22 20:45:00,
2013-02-22 14:50:00,47.2,43.2,30.01,NNE,23,5.0,7.0,86,0.00,,,0.01,WeatherCatV1.02B3,2013-02-22 20:50:00,
2013-02-22 14:55:00,47.2,43.5,30.01,North,355,3.0,6.0,87,0.00,,,0.01,WeatherCatV1.02B3,2013-02-22 20:55:00,
2013-02-22 15:00:00,47.3,43.3,30.03,NNW,341,4.0,4.0,86,0.00,,,0.01,WeatherCatV1.02B3,2013-02-22 21:00:00,
2013-02-22 15:05:00,47.6,43.6,30.03,NNE,12,5.0,7.0,86,0.00,,,0.01,WeatherCatV1.02B3,2013-02-22 21:05:00,
2013-02-22 15:10:00,47.9,44.2,30.02,North,5,4.0,7.0,87,0.00,,,0.01,WeatherCatV1.02B3,2013-02-22 21:10:00,
2013-02-22 15:15:00,47.9,43.6,30.03,North,355,3.0,7.0,85,0.00,,,0.01,WeatherCatV1.02B3,2013-02-22 21:15:00,
2013-02-22 15:20:00,48.1,44.1,30.03,North,5,5.0,6.0,86,0.00,,,0.01,WeatherCatV1.02B3,2013-02-22 21:20:00,
2013-02-22 15:25:00,47.9,43.3,30.02,NNE,31,3.0,6.0,84,0.00,,,0.01,WeatherCatV1.02B3,2013-02-22 21:25:00,
2013-02-22 15:30:00,47.7,43.1,30.03,NNE,24,2.0,2.0,84,0.00,,,0.01,WeatherCatV1.02B3,2013-02-22 21:30:00,
2013-02-22 15:35:00,47.8,43.5,30.03,NNE,16,3.0,4.0,85,0.00,,,0.01,WeatherCatV1.02B3,2013-02-22 21:35:00,
2013-02-22 15:40:00,47.9,43.6,30.03,NE,55,2.0,7.0,85,0.00,,,0.01,WeatherCatV1.02B3,2013-02-22 21:40:00,
2013-02-22 15:45:00,47.8,42.9,30.04,NE,34,5.0,5.0,83,0.00,,,0.01,WeatherCatV1.02B3,2013-02-22 21:45:00,
2013-02-22 15:50:00,47.7,42.8,30.03,NNE,23,4.0,5.0,83,0.00,,,0.01,WeatherCatV1.02B3,2013-02-22 21:50:00,
2013-02-22 15:55:00,47.9,43.3,30.03,NNW,338,5.0,5.0,84,0.00,,,0.01,WeatherCatV1.02B3,2013-02-22 21:55:00,
2013-02-22 16:00:00,48.0,43.1,30.03,NW,325,4.0,5.0,83,0.00,,,0.01,WeatherCatV1.02B3,2013-02-22 22:00:00,
2013-02-22 16:05:00,47.9,43.0,30.03,NW,326,4.0,6.0,83,0.00,,,0.01,WeatherCatV1.02B3,2013-02-22 22:05:00,
2013-02-22 16:10:00,47.9,42.7,30.04,NNW,327,5.0,5.0,82,0.00,,,0.01,WeatherCatV1.02B3,2013-02-22 22:10:00,
2013-02-22 16:15:00,47.9,43.0,30.03,NW,324,4.0,6.0,83,0.00,,,0.01,WeatherCatV1.02B3,2013-02-22 22:15:00,
2013-02-22 16:20:00,47.8,42.9,30.04,NW,317,5.0,5.0,83,0.00,,,0.01,WeatherCatV1.02B3,2013-02-22 22:20:00,
2013-02-22 16:25:00,47.8,42.9,30.04,NW,321,5.0,5.0,83,0.00,,,0.01,WeatherCatV1.02B3,2013-02-22 22:25:00,
2013-02-22 16:30:00,47.8,43.2,30.03,NW,310,4.0,6.0,84,0.00,,,0.01,WeatherCatV1.02B3,2013-02-22 22:30:00,
2013-02-22 16:35:00,47.7,42.8,30.04,NNW,328,3.0,5.0,83,0.00,,,0.01,WeatherCatV1.02B3,2013-02-22 22:35:00,
2013-02-22 16:40:00,47.6,43.0,30.04,WNW,300,2.0,5.0,84,0.00,,,0.01,WeatherCatV1.02B3,2013-02-22 22:40:00,
2013-02-22 16:45:00,47.6,43.0,30.04,NW,313,4.0,5.0,84,0.00,,,0.01,WeatherCatV1.02B3,2013-02-22 22:45:00,
2013-02-22 16:50:00,47.5,42.6,30.04,NW,322,4.0,4.0,83,0.00,,,0.01,WeatherCatV1.02B3,2013-02-22 22:50:00,
2013-02-22 16:55:00,47.5,42.6,30.04,WNW,301,5.0,6.0,83,0.00,,,0.01,WeatherCatV1.02B3,2013-02-22 22:55:00,
2013-02-22 17:00:00,47.5,43.2,30.05,NW,325,3.0,5.0,85,0.00,,,0.01,WeatherCatV1.02B3,2013-02-22 23:00:00,
2013-02-22 17:05:00,47.4,42.8,30.04,NNW,330,6.0,7.0,84,0.00,,,0.01,WeatherCatV1.02B3,2013-02-22 23:05:00,
2013-02-22 17:10:00,47.4,42.8,30.04,NNW,329,4.0,5.0,84,0.00,,,0.01,WeatherCatV1.02B3,2013-02-22 23:10:00,
2013-02-22 17:15:00,47.2,42.3,30.05,NNW,327,4.0,5.0,83,0.00,,,0.01,WeatherCatV1.02B3,2013-02-22 23:15:00,
2013-02-22 17:20:00,47.2,42.0,30.05,NW,317,6.0,6.0,82,0.00,,,0.01,WeatherCatV1.02B3,2013-02-22 23:20:00,
2013-02-22 17:25:00,47.1,42.2,30.04,NW,325,4.0,4.0,83,0.00,,,0.01,WeatherCatV1.02B3,2013-02-22 23:25:00,
2013-02-22 17:30:00,47.1,42.2,30.04,NW,323,0.0,3.0,83,0.00,,,0.01,WeatherCatV1.02B3,2013-02-22 23:30:00,
2013-02-22 17:35:00,47.0,42.1,30.04,NNW,327,4.0,4.0,83,0.00,,,0.01,WeatherCatV1.02B3,2013-02-22 23:35:00,
2013-02-22 17:40:00,46.9,42.0,30.04,NNW,327,2.0,4.0,83,0.00,,,0.01,WeatherCatV1.02B3,2013-02-22 23:40:00,
2013-02-22 17:45:00,47.0,42.4,30.05,NNW,327,3.0,4.0,84,0.00,,,0.01,WeatherCatV1.02B3,2013-02-22 23:45:00,
2013-02-22 17:50:00,46.9,42.3,30.05,NNW,328,4.0,5.0,84,0.00,,,0.01,WeatherCatV1.02B3,2013-02-22 23:50:00,
2013-02-22 17:55:00,46.8,42.5,30.05,NNW,330,5.0,5.0,85,0.00,,,0.01,WeatherCatV1.02B3,2013-02-22 23:55:00,
2013-02-22 18:00:00,46.7,42.4,30.04,North,0,5.0,5.0,85,0.00,,,0.01,WeatherCatV1.02B3,2013-02-23 00:00:00,
2013-02-22 18:05:00,46.6,42.3,30.04,North,355,3.0,5.0,85,0.00,,,0.01,WeatherCatV1.02B3,2013-02-23 00:05:00,
2013-02-22 18:10:00,46.6,42.3,30.05,NNW,333,2.0,5.0,85,0.00,,,0.01,WeatherCatV1.02B3,2013-02-23 00:10:00,
2013-02-22 18:15:00,46.5,42.5,30.05,NNW,333,0.0,2.0,86,0.00,,,0.01,WeatherCatV1.02B3,2013-02-23 00:15:00,
2013-02-22 18:20:00,46.6,42.6,30.05,NW,323,0.0,3.0,86,0.00,,,0.01,WeatherCatV1.02B3,2013-02-23 00:20:00,
2013-02-22 18:25:00,46.5,42.5,30.06,NW,315,3.0,5.0,86,0.00,,,0.01,WeatherCatV1.02B3,2013-02-23 00:25:00,
2013-02-22 18:30:00,46.5,42.2,30.06,NW,323,4.0,6.0,85,0.00,,,0.01,WeatherCatV1.02B3,2013-02-23 00:30:00,
2013-02-22 18:35:00,46.4,42.4,30.06,NW,321,4.0,4.0,86,0.00,,,0.01,WeatherCatV1.02B3,2013-02-23 00:35:00,
2013-02-22 18:40:00,46.4,42.4,30.06,NW,326,4.0,5.0,86,0.00,,,0.01,WeatherCatV1.02B3,2013-02-23 00:40:00,
2013-02-22 18:45:00,46.3,42.6,30.05,North,355,4.0,6.0,87,0.00,,,0.01,WeatherCatV1.02B3,2013-02-23 00:45:00,
2013-02-22 18:50:00,46.1,42.1,30.04,North,349,4.0,6.0,86,0.00,,,0.01,WeatherCatV1.02B3,2013-02-23 00:50:00,
2013-02-22 18:55:00,46.0,42.0,30.04,NNW,340,7.0,8.0,86,0.00,,,0.01,WeatherCatV1.02B3,2013-02-23 00:55:00,
2013-02-22 19:00:00,46.0,42.0,30.05,NNW,332,4.0,7.0,86,0.00,,,0.01,WeatherCatV1.02B3,2013-02-23 01:00:00,
2013-02-22 19:05:00,46.0,42.0,30.05,NNW,344,2.0,4.0,86,0.00,,,0.01,WeatherCatV1.02B3,2013-02-23 01:05:00,
2013-02-22 19:10:00,46.0,42.0,30.05,NNW,344,3.0,5.0,86,0.00,,,0.01,WeatherCatV1.02B3,2013-02-23 01:10:00,
2013-02-22 19:15:00,46.1,41.8,30.05,NNW,344,3.0,5.0,85,0.00,,,0.01,WeatherCatV1.02B3,2013-02-23 01:15:00,
2013-02-22 19:20:00,46.1,42.1,30.05,North,5,4.0,5.0,86,0.00,,,0.01,WeatherCatV1.02B3,2013-02-23 01:20:00,
2013-02-22 19:25:00,46.0,42.0,30.05,North,5,4.0,5.0,86,0.00,,,0.01,WeatherCatV1.02B3,2013-02-23 01:25:00,
2013-02-22 19:30:00,46.0,42.0,30.05,North,350,3.0,4.0,86,0.00,,,0.01,WeatherCatV1.02B3,2013-02-23 01:30:00,
2013-02-22 19:35:00,45.9,42.0,30.05,North,351,4.0,5.0,86,0.00,,,0.01,WeatherCatV1.02B3,2013-02-23 01:35:00,
2013-02-22 19:40:00,45.8,42.2,30.06,North,355,4.0,5.0,87,0.00,,,0.01,WeatherCatV1.02B3,2013-02-23 01:40:00,
2013-02-22 19:45:00,45.7,42.1,30.06,NNW,345,4.0,5.0,87,0.00,,,0.01,WeatherCatV1.02B3,2013-02-23 01:45:00,
2013-02-22 19:50:00,45.7,42.1,30.06,NNW,340,6.0,8.0,87,0.00,,,0.01,WeatherCatV1.02B3,2013-02-23 01:50:00,
2013-02-22 19:55:00,45.7,42.4,30.07,NNW,341,5.0,7.0,88,0.00,,,0.01,WeatherCatV1.02B3,2013-02-23 01:55:00,
2013-02-22 20:00:00,45.6,42.3,30.07,NNW,347,2.0,6.0,88,0.00,,,0.01,WeatherCatV1.02B3,2013-02-23 02:00:00,
2013-02-22 20:05:00,45.5,42.4,30.06,NNW,346,5.0,5.0,89,0.00,,,0.01,WeatherCatV1.02B3,2013-02-23 02:05:00,
2013-02-22 20:10:00,45.4,42.3,30.07,NNW,336,6.0,6.0,89,0.00,,,0.01,WeatherCatV1.02B3,2013-02-23 02:10:00,
2013-02-22 20:15:00,45.4,42.3,30.07,NNW,336,6.0,6.0,89,0.00,,,0.01,WeatherCatV1.02B3,2013-02-23 02:15:00,
2013-02-22 20:20:00,45.2,42.2,30.07,North,355,3.0,4.0,89,0.00,,,0.01,WeatherCatV1.02B3,2013-02-23 02:20:00,
2013-02-22 20:25:00,45.2,42.2,30.08,North,355,3.0,4.0,89,0.00,,,0.01,WeatherCatV1.02B3,2013-02-23 02:25:00,
2013-02-22 20:30:00,45.1,42.1,30.07,NNW,345,2.0,3.0,89,0.00,,,0.01,WeatherCatV1.02B3,2013-02-23 02:30:00,
2013-02-22 20:35:00,45.1,42.1,30.08,NNW,345,0.0,0.0,89,0.00,,,0.01,WeatherCatV1.02B3,2013-02-23 02:35:00,
2013-02-22 20:40:00,45.0,42.0,30.08,NNW,345,0.0,0.0,89,0.00,,,0.01,WeatherCatV1.02B3,2013-02-23 02:40:00,
2013-02-22 20:45:00,44.8,41.8,30.07,NNW,345,0.0,0.0,89,0.00,,,0.01,WeatherCatV1.02B3,2013-02-23 02:45:00,
2013-02-22 20:50:00,44.6,41.8,30.07,NNW,345,0.0,0.0,90,0.00,,,0.01,WeatherCatV1.02B3,2013-02-23 02:50:00,
2013-02-22 20:55:00,44.4,41.7,30.07,North,355,3.0,3.0,90,0.00,,,0.01,WeatherCatV1.02B3,2013-02-23 02:55:00,
2013-02-22 21:00:00,44.3,41.6,30.07,North,355,0.0,2.0,90,0.00,,,0.01,WeatherCatV1.02B3,2013-02-23 03:00:00,
2013-02-22 21:05:00,44.3,41.6,30.07,North,355,3.0,4.0,90,0.00,,,0.01,WeatherCatV1.02B3,2013-02-23 03:05:00,
2013-02-22 21:10:00,44.3,41.6,30.08,North,355,3.0,4.0,90,0.00,,,0.01,WeatherCatV1.02B3,2013-02-23 03:10:00,
2013-02-22 21:15:00,44.2,41.5,30.07,North,350,2.0,3.0,90,0.00,,,0.01,WeatherCatV1.02B3,2013-02-23 03:15:00,
2013-02-22 21:20:00,44.1,41.4,30.08,NNW,345,3.0,4.0,90,0.00,,,0.01,WeatherCatV1.02B3,2013-02-23 03:20:00,
2013-02-22 21:25:00,44.1,41.4,30.08,NNW,346,4.0,5.0,90,0.00,,,0.01,WeatherCatV1.02B3,2013-02-23 03:25:00,
2013-02-22 21:30:00,44.0,41.3,30.08,NNW,336,4.0,7.0,90,0.00,,,0.01,WeatherCatV1.02B3,2013-02-23 03:30:00,
2013-02-22 21:35:00,44.0,41.3,30.08,North,355,3.0,6.0,90,0.00,,,0.01,WeatherCatV1.02B3,2013-02-23 03:35:00,
2013-02-22 21:40:00,44.0,41.3,30.08,North,351,3.0,5.0,90,0.00,,,0.01,WeatherCatV1.02B3,2013-02-23 03:40:00,
2013-02-22 21:45:00,44.0,41.0,30.08,North,355,5.0,6.0,89,0.00,,,0.01,WeatherCatV1.02B3,2013-02-23 03:45:00,
2013-02-22 21:50:00,44.0,41.0,30.07,North,5,6.0,7.0,89,0.00,,,0.01,WeatherCatV1.02B3,2013-02-23 03:50:00,
2013-02-22 21:55:00,44.0,40.7,30.08,North,355,5.0,8.0,88,0.00,,,0.01,WeatherCatV1.02B3,2013-02-23 03:55:00,
2013-02-22 22:00:00,43.8,40.5,30.08,North,5,5.0,6.0,88,0.00,,,0.01,WeatherCatV1.02B3,2013-02-23 04:00:00,
2013-02-22 22:05:00,43.8,40.2,30.08,North,0,4.0,7.0,87,0.00,,,0.01,WeatherCatV1.02B3,2013-02-23 04:05:00,
2013-02-22 22:10:00,43.8,40.2,30.08,NNW,344,3.0,4.0,87,0.00,,,0.01,WeatherCatV1.02B3,2013-02-23 04:10:00,
2013-02-22 22:15:00,43.8,40.5,30.08,North,11,5.0,5.0,88,0.00,,,0.01,WeatherCatV1.02B3,2013-02-23 04:15:00,
2013-02-22 22:20:00,43.8,40.5,30.08,NNE,22,5.0,7.0,88,0.00,,,0.01,WeatherCatV1.02B3,2013-02-23 04:20:00,
2013-02-22 22:25:00,43.8,40.2,30.08,North,9,5.0,9.0,87,0.00,,,0.01,WeatherCatV1.02B3,2013-02-23 04:25:00,
2013-02-22 22:30:00,43.8,40.2,30.07,North,9,5.0,5.0,87,0.00,,,0.01,WeatherCatV1.02B3,2013-02-23 04:30:00,
2013-02-22 22:35:00,43.7,40.1,30.07,North,0,7.0,7.0,87,0.00,,,0.01,WeatherCatV1.02B3,2013-02-23 04:35:00,
2013-02-22 22:40:00,43.6,40.0,30.08,North,355,6.0,9.0,87,0.00,,,0.01,WeatherCatV1.02B3,2013-02-23 04:40:00,
2013-02-22 22:45:00,43.5,40.2,30.08,North,355,5.0,5.0,88,0.00,,,0.01,WeatherCatV1.02B3,2013-02-23 04:45:00,
2013-02-22 22:50:00,43.4,40.1,30.08,North,5,5.0,6.0,88,0.00,,,0.01,WeatherCatV1.02B3,2013-02-23 04:50:00,
2013-02-22 22:55:00,43.3,40.0,30.08,North,0,3.0,5.0,88,0.00,,,0.01,WeatherCatV1.02B3,2013-02-23 04:55:00,
2013-02-22 23:00:00,43.2,39.9,30.08,North,5,8.0,8.0,88,0.00,,,0.01,WeatherCatV1.02B3,2013-02-23 05:00:00,
2013-02-22 23:05:00,43.1,39.8,30.08,North,11,9.0,10.0,88,0.00,,,0.01,WeatherCatV1.02B3,2013-02-23 05:05:00,
2013-02-22 23:10:00,43.0,39.4,30.08,North,5,9.0,9.0,87,0.00,,,0.01,WeatherCatV1.02B3,2013-02-23 05:10:00,
2013-02-22 23:15:00,42.9,39.3,30.08,North,0,9.0,10.0,87,0.00,,,0.01,WeatherCatV1.02B3,2013-02-23 05:15:00,
2013-02-22 23:20:00,42.8,39.2,30.07,NNE,14,8.0,9.0,87,0.00,,,0.01,WeatherCatV1.02B3,2013-02-23 05:20:00,
2013-02-22 23:25:00,42.8,38.9,30.07,North,10,8.0,10.0,86,0.00,,,0.01,WeatherCatV1.02B3,2013-02-23 05:25:00,
2013-02-22 23:30:00,42.7,38.8,30.08,NNE,13,8.0,12.0,86,0.00,,,0.01,WeatherCatV1.02B3,2013-02-23 05:30:00,
2013-02-22 23:35:00,42.6,38.7,30.07,North,9,9.0,11.0,86,0.00,,,0.01,WeatherCatV1.02B3,2013-02-23 05:35:00,
2013-02-22 23:40:00,42.5,38.6,30.08,NNE,14,10.0,10.0,86,0.00,,,0.01,WeatherCatV1.02B3,2013-02-23 05:40:00,
2013-02-22 23:45:00,42.4,38.5,30.08,North,0,9.0,10.0,86,0.00,,,0.01,WeatherCatV1.02B3,2013-02-23 05:45:00,
2013-02-22 23:50:00,42.3,38.4,30.08,North,355,9.0,10.0,86,0.00,,,0.01,WeatherCatV1.02B3,2013-02-23 05:50:00,
2013-02-22 23:55:00,42.2,38.3,30.07,North,5,9.0,13.0,86,0.00,,,0.01,WeatherCatV1.02B3,2013-02-23 05:55:00,